sat.trackr.live / text

‹ back to catalog

KOYOH

NORAD 58464 · 2023-185C

PAYLOAD ACTIVE UNKNOWN

§ Identity

Operator
Country
JPN
Launch date
2023-12-01
Launch site
AFWTR
Launch vehicle
Mass (kg)
RCS (m²)

External: N2YO · Heavens-Above · Gunter

§ Orbital elements

Epoch: 2026-09-21T22:55:16.834080Z

Period
94.79 min
Inclination
97.5235°
Eccentricity
0.0006007
Mean motion
15.19095712 rev/d
Perigee alt
504.4 km
Apogee alt
512.7 km
Semi-major
6,886.7 km
B*
1.8179e-4
RAAN
336.7778°
Arg perigee
342.6177°
Mean anomaly
17.4850°
Rev number
15,481

§ Raw data

KOYOH1 58464U 23185C   26264.95505595  .00003746  00000+0  18179-3 0  99972 58464  97.5235 336.7778 0006007 342.6177  17.4850 15.19095712154818

JSON: /api/v1/satellites/58464 · /tle

For live sub-satellite position, see the globe view (requires WebGL).

§ Visibility from observer

Set your observer location to see the next 7 days of passes ≥ 10°. The values pass through the URL so the page stays shareable.

No JS? Fill the form by hand. The geolocation button needs JavaScript.